Terminal Aerodrome Forecast
Issued by NWS

Home | Current Version | Previous Version | Text Only | Print | Product List | Glossary On
Versions: 1 2 3 4 5 6 7 8 9 10 11 12 13 14 15 16 17 18 19 20 21 22 23
000
FTUS41 KPBZ 140520
TAFZZV
TAF
KZZV 140520Z 1406/1506 27012KT P6SM -SN OVC015
      TEMPO 1408/1410 27015G35KT 5SM -SN
     FM141000 30012G18KT P6SM BKN015
     FM142000 30008KT P6SM BKN025=

USA.gov is the U.S. government's official web portal to all federal, state and local government web resources and services.